Regional Weather Roundup
Issued by NWS

Home | Current Version | Previous Version | Text Only | Print | Product List | Glossary On
Versions: 1 2 3 4 5 6 7 8 9 10 11 12 13 14 15 16 17 18 19 20 21 22 23 24 25 26 27 28 29 30 31 32 33 34 35 36 37 38 39 40 41 42 43 44 45 46 47 48 49 50
000
ASUS44 KFWD 291815
RWRTX
NORTH TEXAS HOURLY WEATHER ROUNDUP
NATIONAL WEATHER SERVICE FORT WORTH TX
100 PM CDT MON AUG 29 2016

NOTE: "FAIR" INDICATES FEW OR NO CLOUDS BELOW 12,000 FEET WITH NO
SIGNIFICANT WEATHER AND/OR OBSTRUCTIONS TO VISIBILITY.

TXZ118-119-291900-
DALLAS/FORT WORTH METROPLEX

CITY           SKY/WX    TMP DP  RH WIND       PRES   REMARKS
DFW AIRPORT    PTSUNNY   90  71  53 NE7       30.06F HX  96
6HR MIN TEMP:  74; 6HR MAX TEMP:  91;

DALLAS LOVE    PTSUNNY   89  71  55 NE9       30.05F HX  95
6HR MIN TEMP:  75; 6HR MAX TEMP:  91;

FTW MEACHAM    MOSUNNY   90  71  53 NE8       30.07F HX  96
6HR MIN TEMP:  76; 6HR MAX TEMP:  90;

DAL-EXECUTIVE  PTSUNNY   90  71  53 VRB7      30.06F HX  96
6HR MIN TEMP:  73; 6HR MAX TEMP:  90;

FTW-ALLIANCE   MOSUNNY   87  70  56 NE9       30.07F HX  92
6HR MIN TEMP:  69; 6HR MAX TEMP:  89;

FTW-NAS-JRB    MOSUNNY   89  68  49 NE7       30.07F HX  93
6HR MIN TEMP:  75; 6HR MAX TEMP:  90;

FTW-SPINKS     PTSUNNY   86  72  62 NE7       30.08F HX  92
ARLINGTON      MOSUNNY   89  70  53 NE6       30.06F HX  94
6HR MIN TEMP:  74; 6HR MAX TEMP:  89;

GRAND PRAIRIE  MOSUNNY   88  68  51 NE6       30.07F HX  91
ADDISON        MOSUNNY   88  70  55 NE8       30.07F HX  92
MESQUITE       CLOUDY    86  73  66 N96       30.06F HX  93
LANCASTER      MOSUNNY   91  71  52 E7        30.06F HX  97
6HR MIN TEMP:  72; 6HR MAX TEMP:  91;

$$

TXZ091>094-102>105-117-120-121-131>134-291900-
NORTH CENTRAL TEXAS

CITY           SKY/WX    TMP DP  RH WIND       PRES   REMARKS
SHRMAN/DENISON PTSUNNY   88  73  59 NE5       30.10F HX  95
6HR MIN TEMP:  71; 6HR MAX TEMP:  89;

GAINESVILLE      N/A     87  69  56 CALM      30.11F HX  91
6HR MIN TEMP:  68; 6HR MAX TEMP:  87;

BOWIE          PTSUNNY   87  69  54 CALM      30.11F HX  90
6HR MIN TEMP:  70; 6HR MAX TEMP:  87;

BRIDGEPORT     PTSUNNY   87  72  62 CALM      30.11F HX  93
6HR MIN TEMP:  68; 6HR MAX TEMP:  87;

DECATUR        MOSUNNY   85  68  55 NE7       30.10F
6HR MIN TEMP:  70; 6HR MAX TEMP:  87;

DENTON         MOSUNNY   88  71  57 NE9       30.07F HX  94
6HR MIN TEMP:  71; 6HR MAX TEMP:  89;

MCKINNEY       PTSUNNY   87  72  60 NE6       30.07F HX  93
6HR MIN TEMP:  71; 6HR MAX TEMP:  89;

GREENVILLE     MOSUNNY   88  68  51 NE7       30.07F HX  91
ROCKWALL       LGT RAIN  83  74  73 SE3       30.06F HX  90
6HR MIN TEMP:  73; 6HR MAX TEMP:  89;

TERRELL        PTSUNNY   90  72  55 NE9       30.06F HX  97
6HR MIN TEMP:  73; 6HR MAX TEMP:  90;

WAXAHACHIE     PTSUNNY   88  72  58 NE7       30.07F HX  95
6HR MIN TEMP:  71; 6HR MAX TEMP:  88;

CLEBURNE       PTSUNNY   88  75  66 NE12      30.08F HX  97
GRANBURY       CLOUDY    89  69  50 N6        30.08F HX  93
6HR MIN TEMP:  71; 6HR MAX TEMP:  89;

$$

TXZ083>090-098>101-113>116-127>130-139>142-154-155-291900-
WESTERN NORTH TEXAS

CITY           SKY/WX    TMP DP  RH WIND       PRES   REMARKS
WICHITA FALLS  MOSUNNY   88  66  48 E7        30.10F HX  90
6HR MIN TEMP:  69; 6HR MAX TEMP:  88;

WF-KICKAPOO    SUNNY     88  65  45 E6        30.12F HX  90
6HR MIN TEMP:  71; 6HR MAX TEMP:  88;

VERNON         CLOUDY    87  63  44 E9        30.13F
6HR MIN TEMP:  69; 6HR MAX TEMP:  92;

ABILENE        MOSUNNY   83  67  58 E13       30.13F
6HR MIN TEMP:  68; 6HR MAX TEMP:  84;

ABILENE-DYESS  MOSUNNY   85  67  54 E13       30.10F
6HR MIN TEMP:  68; 6HR MAX TEMP:  85; 6HR PCP:  0.86;

CISCO          MOSUNNY   82  68  61 E9G17     30.13F
BRECKENRIDGE   MOSUNNY   87  65  47 E7        30.09F
6HR MIN TEMP:  70; 6HR MAX TEMP:  89;

GRAHAM         MOSUNNY   88  67  50 E5        30.08F HX  91
6HR MIN TEMP:  71; 6HR MAX TEMP:  88;

MINERAL WELLS  SUNNY     87  68  52 NE7       30.08F HX  90
6HR MIN TEMP:  69; 6HR MAX TEMP:  87;

STEPHENVILLE   PTSUNNY   86  68  54 NE9       30.12F
6HR MIN TEMP:  69; 6HR MAX TEMP:  87;

COMANCHE       PTSUNNY   83  69  62 E5        30.10F
6HR MIN TEMP:  69; 6HR MAX TEMP:  85;

BROWNWOOD      MOSUNNY   84  68  58 E10G16    30.10F
COLEMAN        PTSUNNY   85  65  51 E6        30.11F
6HR MIN TEMP:  69; 6HR MAX TEMP:  85;

$$

TXZ143>147-156>162-174-175-291900-
CENTRAL TEXAS

CITY           SKY/WX    TMP DP  RH WIND       PRES   REMARKS
WACO           PTSUNNY   88  73  61 NE10      30.04F HX  95
6HR MIN TEMP:  72; 6HR MAX TEMP:  88; 6HR PCP:  0.02;

WACO-TSTC      PTSUNNY   90  73  58 E13       30.03F HX  98
WACO-MCGREGOR  MOSUNNY   88  74  63 NE12      30.04F HX  96
6HR MIN TEMP:  71; 6HR MAX TEMP:  88;

HILLSBORO      PTSUNNY   86  73  64 NE13      30.05F HX  92
6HR MIN TEMP:  70; 6HR MAX TEMP:  86; 6HR PCP:  0.17;

CORSICANA      SUNNY     90  73  57 E10       30.06F HX  98
6HR MIN TEMP:  74; 6HR MAX TEMP:  90;

MEXIA          MOSUNNY   87  72  62 E10G17    30.04F HX  93
6HR MIN TEMP:  71; 6HR MAX TEMP:  88;

HEARNE         MOSUNNY   86  72  61 NE10      30.02F HX  92
6HR MIN TEMP:  72; 6HR MAX TEMP:  88;

CAMERON        PTSUNNY   88  71  57 E9G16     30.02F HX  94
6HR MIN TEMP:  72; 6HR MAX TEMP:  88;

TEMPLE         PTSUNNY   87  73  62 NE12      30.04F HX  94
6HR MIN TEMP:  70; 6HR MAX TEMP:  88;

KILLEEN        PTSUNNY   84  70  62 E13       30.05S
6HR MIN TEMP:  70; 6HR MAX TEMP:  85;

KILLEEN-SKYLRK PTSUNNY   84  72  67 NE12      30.05F
6HR MIN TEMP:  71; 6HR MAX TEMP:  86;

FORT HOOD      PTSUNNY   84  71  64 NE12      30.03S
6HR MIN TEMP:  69; 6HR MAX TEMP:  85;

GATESVILLE     MOSUNNY   86  72  62 NE8       30.08F HX  92
HAMILTON       PTSUNNY   85  69  58 NE7       30.10F
6HR MIN TEMP:  69; 6HR MAX TEMP:  86;

LAMPASAS       PTSUNNY   82  73  73 NE10G16   30.06F
6HR MIN TEMP:  72; 6HR MAX TEMP:  84;

$$

TXZ095>097-106>112-122>126-135>138-148>153-164>167-291900-
EAST TEXAS

CITY           SKY/WX    TMP DP  RH WIND       PRES   REMARKS
PARIS          MOSUNNY   88  72  58 E10       30.08F HX  94
6HR MIN TEMP:  72; 6HR MAX TEMP:  90;

SULPHUR SPRNGS MOSUNNY   90  69  51 E10       30.09S HX  94
6HR MIN TEMP:  72; 6HR MAX TEMP:  91;

MOUNT PLEASANT SUNNY     89  72  57 NE3       30.07F HX  95
6HR MIN TEMP:  72; 6HR MAX TEMP:  90;

GILMER         MOSUNNY   89  73  59 NE7       30.05F HX  96
6HR MIN TEMP:  71; 6HR MAX TEMP:  89;

TYLER          CLOUDY    89  72  56 NE10      30.06S HX  96
6HR MIN TEMP:  73; 6HR MAX TEMP:  90;

LONGVIEW       CLOUDY    87  74  64 E7        30.04F HX  95
6HR MIN TEMP:  73; 6HR MAX TEMP:  89;

MARSHALL       MOSUNNY   85  74  70 NE3       30.07S HX  93
6HR MIN TEMP:  70; 6HR MAX TEMP:  85;

ATHENS         CLOUDY    86  70  58 E5        30.04S HX  90
PALESTINE      MOSUNNY   86  76  71 NE5       30.05F HX  95
JACKSONVILLE   MOSUNNY   84  75  73 N7        30.08S HX  92
HENDERSON      CLOUDY    87  73  63 NE7       30.06F HX  94
6HR MIN TEMP:  73; 6HR MAX TEMP:  87;

CENTER         CLOUDY    89  77  67 E8        30.05S HX 102
6HR MIN TEMP:  75; 6HR MAX TEMP:  89;

NACOGDOCHES    SUNNY    N/A N/A N/A NE5       30.01F
LUFKIN         TSTM      77  74  90 E15G23    30.04R VSB 3/4
6HR MIN TEMP:  72; 6HR MAX TEMP:  86; 6HR PCP:  0.06;

$$

SUPPLEMENTAL OBSERVATIONS (CENTRAL)

CITY           SKY/WX    TMP DP  RH WIND       PRES   REMARKS
DENISON DAM      N/A     84  70  61 W8          N/A
CADDO GRASSLND   N/A     91  70  49 NE5         N/A  HX  97
PAT MAYSE LAKE   N/A     88  72  58 N5          N/A  HX  94
GREENVILLE       N/A     91  72  52 E9          N/A  HX  98
CEDAR HILL       N/A     90  72  55 NE5         N/A  HX  96
LAKE LIMESTONE   N/A     90  72  55 E10         N/A  HX  96
MCGREGOR         N/A     86  75  70 NE9G17      N/A  HX  95
TC1F1C2F2C3F3C4F4C5F5C6F6C7F7C8F8C9!


USA.gov is the U.S. government's official web portal to all federal, state and local government web resources and services.